Weather in Kolchugino

Russia / Vladimir Oblast     56°17′38″N   39°22′33″E
temp.,
°C
wind,
m/s
gust,
m/s
humid.,
%
clouds,
%
prec.,
mm/h
press.,
hPa
HPBL,
m
26 february, fri
fri2600:000w369797 0.0 1012175
03:00+1sw259999 0.1 1011149
06:00+1sw3699100 1.4 1008190
09:00+2wsw51299100 2.8 1004392
12:00+3wsw51399100 0.1 1001426
15:00+3w61599100 1.5 999779
18:00+2w6158572 0.1 999828
21:00+1w7139679 0.2 9981072
27 february, sat
sat2700:00+1wnw71397100 0.3 997989
03:00+1wnw61397100 0.8 9991032
06:00−9nnw61388100 0.8 1000749
09:00−12nnw51189100 0.9 1004583
12:00−10nnw598799 0.0 1006532
15:00−8nnw4988100 0.0 1009559
18:00−9nnw3993100 0.0 1010432
21:00−11n399495 0.1 1013320
28 february, sun
sun2800:00−13nnw269667 0.0 1014174
03:00−14nnw259640 0.0 1015122
06:00−12nnw279550 0.1 1015262
09:00−11nnw249371 0.3 1016256
12:00−7nnw259090 0.1 1016413
15:00−5nnw259095 0.1 1017514
18:00−5n129697 0.1 101830
21:00−9ene119798 0.2 102021
1 march, mon
mon100:00−8ne019799 0.1 102121
03:00−9w119796 0.1 102321
06:00−10wnw129697 0.1 102421
09:00−8w239596 0.1 1024119
12:00−4wsw248886 0.0 1024522
15:00−2wsw488992 0.1 1022610
18:00−1wsw51193100 0.1 1019642
21:000wnw41197100 0.2 1017654
2 march, tue
tue200:00+1wnw51394100 0.3 1015703
03:00+1wnw51397100 0.3 1014729
06:00+1nw51195100 0.1 1013778
09:000wnw51097100 0.1 1012778
12:00+1nw61287100 0.2 10131148
15:00+1nw7138692 0.3 10121111
18:000nw61283100 0.1 10121042
21:00−1nw5128798 0.1 1013951